User: anonymous   Login
Location: Paris
(48.8566°N, 2.3522°E)
Time: 04:54:50
(UTC+02:00)
Language:

ISS - Orbit

View from above orbital plane
View from above orbital plane
View from above satellite
View from above satellite

Ground track
Ground track

The orbit data is extracted from the following two-line orbital elements,

1 25544U 98067A   21216.82095378  .00001413  00000-0  33915-4 0  9998
2 25544  51.6440 102.2208 0001219 247.2669 230.9822 15.48873424296139
Epoch (UTC): 04 August 2021 19:42:10
Eccentricity: 0.0001219
inclination: 51.6440°
perigee height: 419 km
apogee height: 421 km
right ascension of ascending node: 102.2208°
argument of perigee: 247.2669°
revolutions per day: 15.48873424
mean anomaly at epoch: 230.9822°
orbit number at epoch: 29613

The dashed part of the orbit path shows where the satellite is in the earth's shadow,  

DLR